Change the Weather History Date:

Friday, November 2, 2012

  Actual Average (EGSC) Record (EGSC)
Temperature  
Mean Temperature 42 °F -  
Max Temperature 49 °F 53 °F 64 °F (2005)
Min Temperature 35 °F 44 °F 33 °F (1997)
Degree Days  
Heating Degree Days 23    
Moisture  
Dew Point 35 °F    
Average Humidity 81    
Maximum Humidity 93    
Minimum Humidity 53    
Precipitation  
Precipitation 0.00 in - - ()
Sea Level Pressure  
Sea Level Pressure 29.25 in    
Wind  
Wind Speed 10 mph ()    
Max Wind Speed 16 mph    
Max Gust Speed -    
Visibility 6.6 miles    
Events Rain    
Averages and records for this station are not official NWS values.
T = Trace of Precipitation, MM = Missing Value Source: Averaged Metar Reports

Daily Weather History Graph

Daily Weather History Graph

Search for Another Location

Airport or City:

Trip Planner

Search our weather history database for the weather conditions in past years. The results will help you decide how hot, cold, wet, or windy it might be!

Date:

Astronomy

Nov. 02, 2012 Rise Set
Actual Time 6:53 AM GMT 4:24 PM GMT
Civil Twilight 6:17 AM GMT 5:00 PM GMT
Nautical Twilight 5:37 AM GMT 5:40 PM GMT
Astronomical Twilight 4:58 AM GMT 6:20 PM GMT
Moon 6:42 PM GMT (11/2) 10:19 AM GMT (11/2)
Length of Visible Light 10h 42m
Length of Day
9h 31m
Waning Gibbous, 88% of the Moon is Illuminated
Nov 2
Waning Gibbous
Nov 7
Last Quarter
Nov 13
New
Nov 20
First Quarter
Nov 28
Full

Hourly Weather History & Observations

Time (GMT) Temp. Windchill Dew Point Humidity Pressure Visibility Wind Dir Wind Speed Gust Speed Precip Events Conditions
12:50 AM 37.4 °F 30.3 °F 33.8 °F 87% 29.12 in - SSW 10.4 mph - N/A   Clear
1:50 AM 37.4 °F 30.3 °F 33.8 °F 87% 29.12 in - SSW 10.4 mph - N/A   Clear
2:50 AM 36 °F - 34 °F 89% 29.15 in 31 mi SW 9.2 mph - -  
2:50 AM 35.6 °F 28.6 °F 33.8 °F 93% 29.12 in - SW 9.2 mph - N/A   Clear
3:50 AM 39.2 °F 31.6 °F 35.6 °F 87% 29.15 in - WSW 12.7 mph - N/A   Clear
4:50 AM 39.2 °F 31.6 °F 35.6 °F 87% 29.15 in - WSW 12.7 mph - N/A   Clear
5:50 AM 38 °F - 36 °F 90% 29.19 in 28 mi SW 9.2 mph - -   Scattered Clouds
5:50 AM 39.2 °F 33.0 °F 35.6 °F 87% 29.18 in - SW 9.2 mph - N/A   Clear
6:50 AM 37.4 °F 29.8 °F 35.6 °F 93% 29.21 in - SSW 11.5 mph - N/A   Clear
7:50 AM 39.2 °F 33.0 °F 35.6 °F 87% 29.21 in - SSW 9.2 mph - N/A   Clear
8:50 AM 40 °F - 36 °F 82% 29.25 in 25 mi SSW 11.5 mph - -   Scattered Clouds
8:50 AM 41.0 °F 34.3 °F 37.4 °F 87% 29.24 in - SSW 11.5 mph - N/A   Clear
9:50 AM 42.8 °F 37.0 °F 37.4 °F 81% 29.24 in 6.2 mi SSW 10.4 mph - N/A   Scattered Clouds
10:50 AM 46.4 °F 40.4 °F 39.2 °F 76% 29.24 in 6.2 mi SSW 13.8 mph - N/A   Partly Cloudy
11:50 AM 48 °F - 37 °F 57% 29.24 in 22 mi SSW 16.1 mph - -   Scattered Clouds
11:50 AM 48.2 °F - 37.4 °F 66% 29.21 in 6.2 mi SSW 16.1 mph - N/A   Partly Cloudy
12:50 PM 46.4 °F 40.4 °F 35.6 °F 66% 29.21 in 6.2 mi SW 13.8 mph - N/A   Scattered Clouds
1:50 PM 48.2 °F - 35.6 °F 62% 29.21 in 6.2 mi SW 16.1 mph - N/A   Scattered Clouds
2:50 PM 47 °F - 35 °F 53% 29.25 in 28 mi WSW 15.0 mph - - Rain Light Rain Showers
2:50 PM 48.2 °F - 35.6 °F 62% 29.24 in 6.2 mi WSW 15.0 mph - N/A Rain Light Rain Showers
3:50 PM 44.6 °F 38.4 °F 33.8 °F 66% 29.24 in 6.2 mi WSW 12.7 mph - N/A   Partly Cloudy
4:50 PM 41.0 °F 34.3 °F 35.6 °F 81% 29.27 in 6.2 mi WSW 11.5 mph - N/A   Partly Cloudy
5:50 PM 38 °F - 35 °F 83% 29.31 in 28 mi SW 6.9 mph - -  
5:50 PM 39.2 °F 34.2 °F 35.6 °F 87% 29.30 in 6.2 mi SW 6.9 mph - N/A   Unknown
6:50 PM 39.2 °F 33.0 °F 33.8 °F 81% 29.30 in 6.2 mi SW 9.2 mph - N/A   Unknown
7:50 PM 39.2 °F 32.5 °F 33.8 °F 81% 29.33 in 6.2 mi SW 10.4 mph - N/A   Unknown
8:50 PM 38 °F - 35 °F 83% 29.37 in 28 mi SW 9.2 mph - -  
8:50 PM 39.2 °F 33.0 °F 35.6 °F 87% 29.36 in 6.2 mi SW 9.2 mph - N/A   Unknown
9:50 PM 39.2 °F 33.6 °F 35.6 °F 87% 29.36 in 6.2 mi SW 8.1 mph - N/A   Unknown
10:50 PM 37.4 °F 31.4 °F 35.6 °F 93% 29.39 in 6.2 mi SW 8.1 mph - N/A   Unknown
11:50 PM 37 °F - 35 °F 88% 29.40 in 13 mi SSW 8.1 mph - -  
11:50 PM 37.4 °F 31.4 °F 35.6 °F 93% 29.39 in 6.2 mi SSW 8.1 mph - N/A   Unknown